Location: Dilsberg
(49.3983°N, 8.8354°E)
Time: 21:31:51
(UTC+00:00)

Cosmos 44 - Pass Details

Date: 19 May 2025
Orbit: 588 x 763 km, 65.1° (Epoch: 15 June)

Event Time Altitude Azimuth Distance (km) Brightness Sun altitude
Rises 21:16:13 0° 315° (NW) 2,910 8.1 -15.3°
Reaches altitude 10° 21:18:34 10° 307° (NW) 2,023 6.8 -15.5°
Maximum altitude 21:22:47 37° 241° (WSW) 1,016 4.1 -15.8°
Enters shadow 21:25:16 22° 188° (S) 1,468 4.5 -16.0°
